Location: ??????????
(48.4699°N, 37.9573°E)
Time: 20:33:32
(UTC+00:00)

Meteor 2-10 Rocket - Pass Details

Date: 20 January 2021
Orbit: 733 x 885 km, 81.2° (Epoch: 01 March)

Event Time Altitude Azimuth Distance (km) Brightness Sun altitude
Rises 15:02:07 0° 351° (N) 3,428 6.7 -8.9°
Reaches altitude 10° 15:04:42 10° 358° (N) 2,466 6.0 -9.3°
Maximum altitude 15:10:04 47° 72° (ENE) 1,071 3.8 -10.2°
Drops below altitude 10° 15:15:11 10° 146° (SE) 2,350 5.9 -11.0°
Sets 15:17:35 0° 152° (SSE) 3,251 6.6 -11.3°
